This is the latest recevied weather packets stored in our database for station/object N5PRN. If no packets are shown the sender has not sent any weather packets the latest 10 day(s).
| Time | Temp. | Humidity | Pressure | Rain* | Wind** | Luminosity | Snow |
|---|---|---|---|---|---|---|---|
| 1777554031 | 16.67° C | 99% | 1013 hPa | 0 mm | - | 31 W/m² | - |
| 1777553121 | 16.67° C | 99% | 1012.4 hPa | 1.27 mm | - | 20 W/m² | - |
| 1777552516 | 16.67° C | 99% | 1012.6 hPa | 1.78 mm | - | 15 W/m² | - |
| 1777551909 | 16.67° C | 99% | 1012.2 hPa | 3.05 mm | - | 17 W/m² | - |
| 1777551607 | 16.67° C | 99% | 1012.7 hPa | 1.78 mm | - | 4 W/m² | - |
| 1777550090 | 17.22° C | 99% | 1012.5 hPa | 0 mm | - | 3 W/m² | - |
| 1777548269 | 17.22° C | 99% | 1012.3 hPa | 0 mm | - | 0 W/m² | - |
| 1777547966 | 17.22° C | 99% | 1012 hPa | 0 mm | - | 0 W/m² | - |
| 1777547662 | 17.22° C | 99% | 1011.7 hPa | 0 mm | - | 0 W/m² | - |
| 1777546450 | 17.22° C | 99% | 1012.1 hPa | 12.7 mm | - | 0 W/m² | - |
| 1777545540 | 17.22° C | 99% | 1012 hPa | 16.76 mm | - | 0 W/m² | - |
| 1777544935 | 17.22° C | 99% | 1012 hPa | 33.53 mm | - | 0 W/m² | - |
| 1777544630 | 17.22° C | 99% | 1012 hPa | 37.85 mm | - | 0 W/m² | - |
| 1777544327 | 17.22° C | 99% | 1011.3 hPa | 39.62 mm | - | 0 W/m² | - |
| 1777544024 | 17.22° C | 99% | 1011.3 hPa | 19.81 mm | - | 0 W/m² | - |
| 1777543721 | 17.78° C | 99% | 1012.1 hPa | 1.78 mm | - | 0 W/m² | - |
| 1777541899 | 17.78° C | 99% | 1011.6 hPa | 0 mm | - | 0 W/m² | - |
| 1777541293 | 18.33° C | 99% | 1012 hPa | 1.27 mm | - | 0 W/m² | - |
| 1777540988 | 18.33° C | 99% | 1012 hPa | 1.27 mm | - | 0 W/m² | - |
| 1777540686 | 18.89° C | 99% | 1011.7 hPa | 0 mm | - | 0 W/m² | - |
| 1777540383 | 18.89° C | 99% | 1011.9 hPa | 0 mm | - | 0 W/m² | - |
| 1777539471 | 19.44° C | 99% | 1011.8 hPa | 0 mm | - | 0 W/m² | - |
| 1777538254 | 19.44° C | 99% | 1011.4 hPa | 0 mm | - | 0 W/m² | - |
| 1777537950 | 19.44° C | 99% | 1011.6 hPa | 0 mm | - | 0 W/m² | - |
| 1777537039 | 19.44° C | 99% | 1011.9 hPa | 0 mm | - | 0 W/m² | - |
* Rain latest hour (hover to see other rain measurements)
** Current wind speed in m/s (hover to see current wind gust speed)